This demonstration page uses our WeatherBlox Daily Observations layout. Learn more.

Left ArrowRight Arrow

39.08367, -84.50855

Hourly Observations for December 19, 2020

Temp ( °F °C ) Dew Point ( °F °C ) Humidity (%) Winds ( mph kmh ) Pressure ( in mb ) Visibility ( mi km ) Precip ( " mm )
12:53 am 00:53 Clear 30 -1.1 24 -4.4 79 79 W 3 6 30.36 1028 10 16.0934 0 0
1:53 am 01:53 Clear 29 -1.7 24 -4.4 82 82 SSW 6 9 30.35 1028 10 16.0934 0 0
2:53 am 02:53 Clear 30 -1.1 25 -3.9 82 82 SSW 5 7 30.34 1027 10 16.0934 0 0
3:53 am 03:53 Clear 30 -1.1 25 -3.9 82 82 SSW 7 11 30.32 1027 10 16.0934 0 0
4:53 am 04:53 Clear 30 -1.1 25 -3.9 82 82 SSW 7 11 30.29 1026 10 16.0934 0 0
5:53 am 05:53 Clear 30 -1.1 24 -4.4 79 79 SSW 5 7 30.29 1026 10 16.0934 0 0
6:53 am 06:53 Clear 30 -1.1 24 -4.4 79 79 SW 5 7 30.28 1026 10 16.0934 0 0
7:53 am 07:53 Sunny 31 -0.6 25 -3.9 79 79 SSW 6 9 30.28 1025 10 16.0934 0 0
8:53 am 08:53 Sunny 33 0.6 26 -3.3 75 75 SSW 5 7 30.26 1025 10 16.0934 0 0
9:53 am 09:53 Sunny 35 1.7 27 -2.8 72 72 SSW 7 11 30.27 1025 10 16.0934 0 0
10:53 am 10:53 Sunny 38 3.3 28 -2.2 68 68 SSW 9 15 30.24 1024 10 16.0934 0 0
11:53 am 11:53 Cloudy 40 4.4 29 -1.7 65 65 SSW 7 11 30.21 1023 10 16.0934 0 0
12:53 pm 12:53 Cloudy 43 6.1 30 -1.1 60 60 S 10 17 30.16 1022 10 16.0934 0 0
1:53 pm 13:53 Cloudy 44 6.7 29 -1.7 55 55 SSW 10 17 30.14 1021 10 16.0934 0 0
2:53 pm 14:53 Cloudy 44 6.7 30 -1.1 58 58 SSW 8 13 30.14 1021 10 16.0934 0 0
3:53 pm 15:53 Cloudy 44 6.7 30 -1.1 58 58 S 10 17 30.13 1020 10 16.0934 0 0
4:53 pm 16:53 Cloudy 44 6.7 30 -1.1 58 58 S 7 11 30.12 1020 10 16.0934 0 0
5:53 pm 17:53 Cloudy 44 6.7 30 -1.1 58 58 SSW 8 13 30.12 1020 10 16.0934 0 0
6:53 pm 18:53 Cloudy with Light Rain 43 6.1 32 0 65 65 SSW 9 15 30.11 1020 10 16.0934 0.001 0.001
7:44 pm 19:44 Cloudy with Light Rain 41 5 35 1.7 79 79 SW 5 7 30.13 1020 10 16.0934 0.02 0.508
7:53 pm 19:53 Cloudy with Light Rain 40 4.4 36 2.2 86 86 S 5 7 30.11 1020 10 16.0934 0.02 0.508
8:53 pm 20:53 Cloudy with Light Rain 39 3.9 37 2.8 93 93 S 5 7 30.12 1020 9 14.48406 0.03 0.762
9:53 pm 21:53 Cloudy with Light Rain 40 4.4 37 2.8 89 89 SSW 6 9 30.1 1019 9 14.48406 0.03 0.762
10:53 pm 22:53 Cloudy with Light Rain 40 4.4 37 2.8 89 89 SSW 8 13 30.09 1019 8 12.87472 0.03 0.762
11:00 pm 23:00 Cloudy with Light Rain 40 4.4 37 2.8 89 89 SSW 9 15 30.1 1019 8 12.87472 0.001 0.001
11:35 pm 23:35 Cloudy with Light Rain 40 4.4 37 2.8 89 89 SSW 12 19 30.1 1019 6 9.65604 0.03 0.762
11:53 pm 23:53 Cloudy with Light Rain 40 4.4 37 2.8 89 89 SSW 12 19 30.08 1019 7 11.26538 0.04 1.016

Powered by AerisWeather